Content
SEND FEEDBACK

Daily
Averages
Monthly
Summary
United States of America

CHICAGO, ILLINOIS


Home > North America > United States > Illinois
Elevation: 674 feet     Latitude: 41 59N     Longitude: 087 54W

WEATHER
 
SELECT A DAY
Number of Records: 194,730;   Date Range: 7/8/95 - 7/7/14
 
SHARE

PRINT THIS DATA

[ ← Previous Day ]
WEATHER ALMANAC - JANUARY 9, 2014
[ Next Day → ]
[ °C ]   °F
Weather ElementAverageHighLow
Temperature17.4 °F27 °F (11:52 pm)-5.1 °F (1:52 am)
Dewpoint13.1 °F24.1 °F (11:52 pm)-11 °F (1:52 am)
Humidity83.3 %89 % (11:52 pm)71 % (11:52 am)
Barometer30.34 in30.58 in (2:52 am)30.15 in (11:50 pm)
Wind Speed4.1 mph9.2 mph (1:25 pm)
Weather ElementAverage
Visibility3.8 mi
Wind DirectionESE (107.9 °)

Weather ElementTotal
Precipitation---
Heating Degree Days54.1 (Base 65)
Averaged from 43 records on January 9, 2014
WEATHER CONDITIONS BREAKOUT
WIND DIRECTION BREAKOUT
WEATHER BY HOUR - JANUARY 9, 2014
[ °C ]   °F
Local TimeTemperatureDewpointHumidityBarometerVisibilityWind DirectionWind SpeedGust SpeedPrecipitationEventsConditions
1:52 AM-5.1 °F-11.0 °F76 %30.57 in9.0 miCalmClear
2:52 AM-5.1 °F-9.9 °F80 %30.58 in8.0 miCalmClear
3:52 AM-5.1 °F-11.0 °F76 %30.56 in8.0 miCalmClear
4:52 AM-5.1 °F-9.9 °F80 %30.55 in8.0 miCalmClear
5:52 AM-4.0 °F-9.9 °F76 %30.54 in8.0 miCalmClear
6:52 AM-4.0 °F-9.9 °F76 %30.54 in7.0 miCalmClear
7:52 AM-0.9 °F-6.0 °F79 %30.53 in6.0 miCalmHaze
8:52 AM3.0 °F0.0 °F87 %30.52 in5.0 miCalmOvercast
9:52 AM9.0 °F5.0 °F84 %30.50 in4.0 miCalmOvercast
10:07 AM10.4 °F6.8 °F85 %30.45 in4.0 miCalmOvercast
10:52 AM16.0 °F10.0 °F77 %30.47 in4.0 miCalmHaze
11:52 AM19.9 °F12.0 °F71 %30.42 in9.0 miSSE (160°)8.1 mphOvercast
12:52 PM21.0 °F12.9 °F71 %30.40 in8.0 miSSE (150°)4.6 mphOvercast
1:25 PM21.2 °F15.8 °F80 %30.34 in2.0 miSouth (180°)9.2 mph0.00 inSnowLight Snow
1:52 PM19.9 °F16.0 °F85 %30.37 in2.0 miSouth (180°)5.8 mph0.00 inSnowLight Snow
1:59 PM19.4 °F15.8 °F86 %30.32 in1.2 miSouth (170°)4.6 mph0.00 inSnowLight Snow
2:40 PM21.2 °F15.8 °F80 %30.31 in3.0 miSE (140°)3.5 mph0.00 inHaze
2:52 PM21.0 °F16.0 °F81 %30.35 in3.0 miSSE (150°)4.6 mph0.00 inHaze
3:11 PM21.2 °F17.6 °F86 %30.31 in2.0 miSSE (150°)3.5 mphOvercast
3:21 PM21.2 °F17.6 °F86 %30.31 in1.8 miSE (130°)4.6 mphOvercast
3:50 PM21.2 °F17.6 °F86 %30.30 in1.0 miCalm0.00 inSnowLight Snow
3:52 PM21.9 °F18.0 °F85 %30.35 in1.0 miSE (130°)3.5 mph0.00 inSnowLight Snow
4:07 PM21.2 °F17.6 °F86 %30.30 in1.2 miESE (110°)3.5 mph0.00 inSnowLight Snow
4:20 PM21.2 °F17.6 °F86 %30.29 in2.5 miESE (110°)3.5 mph0.00 inOvercast
5:52 PM23.0 °F19.0 °F85 %30.30 in3.0 miESE (120°)4.6 mphOvercast
6:29 PM23.0 °F19.4 °F86 %30.25 in3.0 miSE (140°)5.8 mphOvercast
6:37 PM23.0 °F19.4 °F86 %30.25 in3.0 miSE (140°)4.6 mphOvercast
6:52 PM23.0 °F19.9 °F88 %30.30 in3.0 miCalmOvercast
7:09 PM24.8 °F19.4 °F80 %30.25 in2.5 miSSE (150°)4.6 mphOvercast
7:27 PM24.8 °F21.2 °F86 %30.24 in3.0 miSSE (150°)5.8 mphOvercast
7:40 PM24.8 °F21.2 °F86 %30.23 in3.0 miSSE (160°)6.9 mphOvercast
7:52 PM24.1 °F21.0 °F88 %30.27 in3.0 miSSE (160°)9.2 mphOvercast
8:06 PM24.8 °F21.2 °F86 %30.22 in2.5 miSouth (170°)9.2 mphOvercast
8:52 PM25.0 °F21.0 °F85 %30.25 in2.5 miSSE (160°)5.8 mphOvercast
8:59 PM24.8 °F21.2 °F86 %30.20 in3.0 miSSE (160°)6.9 mphOvercast
9:37 PM24.8 °F21.2 °F86 %30.19 in2.5 miSSE (160°)6.9 mphOvercast
9:44 PM24.8 °F21.2 °F86 %30.19 in3.0 miSouth (170°)6.9 mphOvercast
9:52 PM25.0 °F21.9 °F88 %30.23 in3.0 miSouth (170°)6.9 mphOvercast
10:01 PM24.8 °F21.2 °F86 %30.19 in3.0 miSouth (170°)5.8 mphOvercast
10:20 PM24.8 °F21.2 °F86 %30.19 in3.0 miSouth (170°)4.6 mphOvercast
10:52 PM26.1 °F23.0 °F88 %30.20 in3.0 miSouth (170°)5.8 mphOvercast
11:50 PM26.6 °F23.0 °F86 %30.15 in2.5 miSouth (180°)8.1 mphOvercast
11:52 PM27.0 °F24.1 °F89 %30.18 in2.5 miSouth (180°)6.9 mphOvercast
Hourly data recorded from KPWK, located miles away from Chicago, Illinois







STORIES FROM OUR PARTNERS